DELTA 1 DEB, 17000

Orbit data source: Space-Track

DELTA 1 DEB, 17000 is space debris in LEO originally from a launch on Thu, 29 Jul 1976 UTC launched from the Air Force Western Test Range (AFWTR). Debris objects in space refer to the collection of defunct objects orbiting the Earth. Examples of debris include non-operational satellites, rocket bodies, and fragments generated from explosions, collisions, or faulty payload assembly.

Loading next visibility...
Identifier
17000, 1976-077EX
Orbit
LEO
Country
Flag of USUS
Related business
Manufacturer
Unknown
Mission
Spacecraft
Bus & Motor
Unknown
Mass
Unknown
Launch date (UTC)
1976-07-29 (50 years ago)
Launch vehicle
Unknown
Launch site
Air Force Western Test Range (AFWTR)
Object type
Payload
Rocket body
Debris
Shape & HBR
Unknown shape, 0.1 m
Radar Cross Section
Medium (>0.1 m² and <1 m²)

Expand to show TLE details & history
Last TLE update: 15 hours ago

TLE from 15 hours ago
0 DELTA 1 DEB
1 17000U 76077EX  26255.62437125  .00003081  00000-0  50757-1 0  9992
2 17000 102.4935 310.4639 0682445 246.3872 278.3161 11.32901181746665
Epoch: 2026-09-12T14:59Z
TLE epoch observation values (Epoch: 2026-09-12T14:59:05.676Z)
Latitude
22.5453°
Longitude
-80.68726°
Altitude
1,954.26 km
Speed
6.937 km/s
True Right ascension
09h 02m 52s
True Declination
22° 26' 28"
Sunlit
Object was in daylight at epoch
Visualization orbit readout
Latitude
Unknown
Longitude
Unknown
Altitude
Unknown
Speed
Unknown
Apparent Right ascension
Unknown
Apparent Declination
Unknown
Sunlit
N/A
Visualization observer readout
Local Sidereal Time
22:29:05
Azimuth
Unknown
Elevation
Unknown
Doppler factor
Unknown
Orbital elements
Apogee altitude
2,565.072 km
Perigee altitude
1,422.403 km
Semi-major axis
8,371.875 km
Eccentricity
0.06824
Inclination
102.4935°
RAAN
310.4639°
Arg. of periapsis
246.3872°
True anomaly
270.50576°
Mean anomaly
278.3161°
Eccentric anomaly
274.41759°
Mean motion
2.83341 °/min
Orbital period
127.06 mins
BSTAR
0.050757
Loading maneuver chart data...
Computing Atmospheric mass density...
Loading historical data...
Loading historical data...
Loading historical data...
Loading historical data...
Loading historical data...
Loading historical data...
Loading historical data...

Documentation

Showing up to 5 results
|